| time (UTC) | temp C | wind direction | speed KPH | gust KPH | rain 1hr cm | rain 24hr cm | rain mn cm | humidity % | barometer mb |
| 20260510002011 | 39 | 190 | 1.6 | 12.9 | 0.00 | 0.00 | 0.00 | 8 | 1002.8 |
| 20260510001515 | 39 | 223 | 4.8 | 17.7 | 0.00 | 0.00 | 0.00 | 8 | 1002.8 |
| 20260510001011 | 39 | 267 | 6.4 | 17.7 | 0.00 | 0.00 | 0.00 | 8 | 1002.7 |
| 20260510000510 | 39 | 240 | 1.6 | 12.9 | 0.00 | 0.00 | 0.00 | 8 | 1002.8 |
| 20260510000009 | 39 | 214 | 3.2 | 11.3 | 0.00 | 0.00 | 0.00 | 8 | 1002.9 |
| 20260509235508 | 40 | 300 | 1.6 | 17.7 | 0.00 | 0.00 | 0.00 | 8 | 1003.0 |
| 20260509235008 | 40 | 153 | 4.8 | 17.7 | 0.00 | 0.00 | 0.00 | 8 | 1002.9 |
| 20260509234521 | 40 | 227 | 3.2 | 11.3 | 0.00 | 0.00 | 0.00 | 8 | 1003.0 |
| 20260509234009 | 39 | 157 | 3.2 | 8.0 | 0.00 | 0.00 | 0.00 | 8 | 1003.0 |
| 20260509233507 | 39 | 261 | 1.6 | 12.9 | 0.00 | 0.00 | 0.00 | 8 | 1003.0 |
| 20260509233009 | 39 | 207 | 3.2 | 16.1 | 0.00 | 0.00 | 0.00 | 8 | 1003.1 |
| 20260509232507 | 39 | 259 | 9.7 | 16.1 | 0.00 | 0.00 | 0.00 | 7 | 1003.1 |
| 20260509232006 | 40 | 295 | 3.2 | 9.7 | 0.00 | 0.00 | 0.00 | 8 | 1003.2 |
| 20260509231506 | 40 | 221 | 3.2 | 11.3 | 0.00 | 0.00 | 0.00 | 8 | 1003.1 |
| 20260509231007 | 40 | 237 | 3.2 | 11.3 | 0.00 | 0.00 | 0.00 | 8 | 1003.2 |
| 20260509230505 | 40 | 278 | 4.8 | 11.3 | 0.00 | 0.00 | 0.00 | 8 | 1003.2 |
| 20260509230011 | 40 | 249 | 3.2 | 14.5 | 0.00 | 0.00 | 0.00 | 8 | 1003.3 |
| 20260509225505 | 40 | 166 | 3.2 | 12.9 | 0.00 | 0.00 | 0.00 | 8 | 1003.3 |
| 20260509225005 | 40 | 215 | 4.8 | 12.9 | 0.00 | 0.00 | 0.00 | 8 | 1003.3 |
| 20260509224503 | 39 | 326 | 4.8 | 11.3 | 0.00 | 0.00 | 0.00 | 8 | 1003.4 |
| 20260509224002 | 40 | 225 | 3.2 | 14.5 | 0.00 | 0.00 | 0.00 | 8 | 1003.6 |
| 20260509223502 | 39 | 209 | 6.4 | 17.7 | 0.00 | 0.00 | 0.00 | 8 | 1003.6 |
| 20260509223001 | 39 | 242 | 6.4 | 19.3 | 0.00 | 0.00 | 0.00 | 8 | 1003.7 |
| 20260509222600 | 39 | 264 | 6.4 | 19.3 | 0.00 | 0.00 | 0.00 | 9 | 1003.7 |
| 20260509222102 | 40 | 236 | 3.2 | 12.9 | 0.00 | 0.00 | 0.00 | 9 | 1003.8 |
| 20260509221559 | 40 | 259 | 3.2 | 17.7 | 0.00 | 0.00 | 0.00 | 9 | 1003.9 |
| 20260509221101 | 39 | 202 | 3.2 | 17.7 | 0.00 | 0.00 | 0.00 | 8 | 1004.0 |
| 20260509220558 | 40 | 280 | 4.8 | 17.7 | 0.00 | 0.00 | 0.00 | 9 | 1004.0 |
| 20260509220057 | 40 | 265 | 6.4 | 16.1 | 0.00 | 0.00 | 0.00 | 9 | 1004.0 |
| 20260509215557 | 40 | 271 | 3.2 | 12.9 | 0.00 | 0.00 | 0.00 | 8 | 1004.1 |
| 20260509215056 | 40 | 215 | 3.2 | 12.9 | 0.00 | 0.00 | 0.00 | 9 | 1004.2 |
| 20260509214556 | 40 | 221 | 4.8 | 11.3 | 0.00 | 0.00 | 0.00 | 9 | 1004.4 |
| 20260509214055 | 40 | 211 | 3.2 | 16.1 | 0.00 | 0.00 | 0.00 | 9 | 1004.4 |
| 20260509213553 | 40 | 250 | 6.4 | 16.1 | 0.00 | 0.00 | 0.00 | 9 | 1004.5 |
| 20260509213058 | 40 | 211 | 1.6 | 9.7 | 0.00 | 0.00 | 0.00 | 9 | 1004.6 |
| 20260509212552 | 39 | 202 | 4.8 | 11.3 | 0.00 | 0.00 | 0.00 | 9 | 1004.7 |
| 20260509212050 | 39 | 235 | 3.2 | 11.3 | 0.00 | 0.00 | 0.00 | 9 | 1004.7 |
| 20260509211554 | 38 | 141 | 1.6 | 16.1 | 0.00 | 0.00 | 0.00 | 9 | 1004.8 |
| 20260509211049 | 38 | 268 | 8.0 | 17.7 | 0.00 | 0.00 | 0.00 | 9 | 1004.9 |
| 20260509210548 | 38 | 241 | 4.8 | 22.5 | 0.00 | 0.00 | 0.00 | 10 | 1005.0 |
| 20260509210051 | 39 | 261 | 9.7 | 22.5 | 0.00 | 0.00 | 0.00 | 10 | 1005.1 |
| 20260509205546 | 39 | 274 | 4.8 | 14.5 | 0.00 | 0.00 | 0.00 | 10 | 1005.1 |
| 20260509205046 | 39 | 247 | 3.2 | 11.3 | 0.00 | 0.00 | 0.00 | 10 | 1005.2 |
| 20260509204544 | 38 | 187 | 4.8 | 14.5 | 0.00 | 0.00 | 0.00 | 10 | 1005.3 |
| 20260509204044 | 38 | 252 | 3.2 | 14.5 | 0.00 | 0.00 | 0.00 | 10 | 1005.4 |
| 20260509203543 | 38 | 323 | 6.4 | 14.5 | 0.00 | 0.00 | 0.00 | 9 | 1005.5 |
| 20260509203043 | 38 | 279 | 3.2 | 11.3 | 0.00 | 0.00 | 0.00 | 10 | 1005.5 |
| 20260509202542 | 38 | 247 | 4.8 | 12.9 | 0.00 | 0.00 | 0.00 | 10 | 1005.6 |
| 20260509202042 | 38 | 189 | 3.2 | 11.3 | 0.00 | 0.00 | 0.00 | 9 | 1005.6 |
| 20260509201542 | 38 | 248 | 6.4 | 12.9 | 0.00 | 0.00 | 0.00 | 10 | 1005.7 |
| 20260509201043 | 38 | 165 | 1.6 | 8.0 | 0.00 | 0.00 | 0.00 | 9 | 1005.8 |
| 20260509200544 | 38 | 221 | 4.8 | 12.9 | 0.00 | 0.00 | 0.00 | 9 | 1005.9 |
| 20260509200041 | 38 | 236 | 3.2 | 12.9 | 0.00 | 0.00 | 0.00 | 10 | 1005.9 |
| 20260509195540 | 38 | 187 | 1.6 | 12.9 | 0.00 | 0.00 | 0.00 | 10 | 1006.0 |
| 20260509195038 | 38 | 252 | 1.6 | 11.3 | 0.00 | 0.00 | 0.00 | 11 | 1006.1 |
| 20260509194539 | 38 | 296 | 3.2 | 11.3 | 0.00 | 0.00 | 0.00 | 11 | 1006.1 |
| 20260509194039 | 38 | 223 | 1.6 | 9.7 | 0.00 | 0.00 | 0.00 | 10 | 1006.2 |
| 20260509193539 | 38 | 230 | 3.2 | 9.7 | 0.00 | 0.00 | 0.00 | 10 | 1006.3 |
| 20260509193039 | 38 | 155 | 3.2 | 11.3 | 0.00 | 0.00 | 0.00 | 11 | 1006.2 |
| 20260509192539 | 37 | 190 | 3.2 | 14.5 | 0.00 | 0.00 | 0.00 | 11 | 1006.4 |
| 20260509192037 | 38 | 207 | 4.8 | 9.7 | 0.00 | 0.00 | 0.00 | 11 | 1006.4 |
| 20260509191536 | 37 | 207 | 1.6 | 9.7 | 0.00 | 0.00 | 0.00 | 11 | 1006.4 |
| 20260509191034 | 37 | 225 | 3.2 | 9.7 | 0.00 | 0.00 | 0.00 | 11 | 1006.6 |
| 20260509190534 | 37 | 78 | 1.6 | 12.9 | 0.00 | 0.00 | 0.00 | 11 | 1006.6 |
| 20260509190038 | 37 | 224 | 1.6 | 12.9 | 0.00 | 0.00 | 0.00 | 11 | 1006.7 |
| 20260509185534 | 37 | 87 | 3.2 | 11.3 | 0.00 | 0.00 | 0.00 | 10 | 1006.8 |
| 20260509185032 | 37 | 168 | 1.6 | 11.3 | 0.00 | 0.00 | 0.00 | 11 | 1006.8 |
| 20260509184534 | 37 | 180 | 1.6 | 11.3 | 0.00 | 0.00 | 0.00 | 12 | 1006.8 |
| 20260509184028 | 36 | 222 | 3.2 | 9.7 | 0.00 | 0.00 | 0.00 | 11 | 1006.9 |
| 20260509183527 | 36 | 187 | 3.2 | 9.7 | 0.00 | 0.00 | 0.00 | 11 | 1007.0 |
| 20260509183028 | 36 | 156 | 1.6 | 11.3 | 0.00 | 0.00 | 0.00 | 12 | 1007.1 |
| 20260509182525 | 36 | 210 | 3.2 | 11.3 | 0.00 | 0.00 | 0.00 | 12 | 1007.2 |
| 20260509182024 | 35 | 212 | 3.2 | 8.0 | 0.00 | 0.00 | 0.00 | 12 | 1007.2 |
| 20260509181539 | 35 | 150 | 1.6 | 8.0 | 0.00 | 0.00 | 0.00 | 11 | 1007.3 |
| 20260509181024 | 35 | 195 | 1.6 | 6.4 | 0.00 | 0.00 | 0.00 | 12 | 1007.4 |
| 20260509180523 | 35 | 277 | 1.6 | 12.9 | 0.00 | 0.00 | 0.00 | 12 | 1007.5 |
| 20260509180019 | 35 | 222 | 1.6 | 12.9 | 0.00 | 0.00 | 0.00 | 13 | 1007.5 |
| 20260509175518 | 35 | 90 | 3.2 | 11.3 | 0.00 | 0.00 | 0.00 | 13 | 1007.6 |
| 20260509175018 | 35 | 165 | 1.6 | 8.0 | 0.00 | 0.00 | 0.00 | 13 | 1007.7 |
| 20260509174516 | 34 | 107 | 3.2 | 8.0 | 0.00 | 0.00 | 0.00 | 13 | 1007.7 |
| 20260509174016 | 34 | 223 | 1.6 | 6.4 | 0.00 | 0.00 | 0.00 | 13 | 1007.7 |
| 20260509173514 | 34 | 155 | 1.6 | 4.8 | 0.00 | 0.00 | 0.00 | 14 | 1007.7 |
| 20260509173018 | 34 | 252 | 1.6 | 4.8 | 0.00 | 0.00 | 0.00 | 13 | 1007.8 |
| 20260509172512 | 34 | 165 | 1.6 | 4.8 | 0.00 | 0.00 | 0.00 | 14 | 1007.8 |
| 20260509172011 | 33 | 304 | 1.6 | 4.8 | 0.00 | 0.00 | 0.00 | 13 | 1007.9 |
| 20260509171510 | 33 | 172 | 0.0 | 4.8 | 0.00 | 0.00 | 0.00 | 14 | 1007.9 |
| 20260509171009 | 33 | 200 | 0.0 | 4.8 | 0.00 | 0.00 | 0.00 | 13 | 1007.9 |
| 20260509170507 | 33 | 68 | 0.0 | 4.8 | 0.00 | 0.00 | 0.00 | 15 | 1008.0 |
| 20260509170005 | 33 | 153 | 0.0 | 4.8 | 0.00 | 0.00 | 0.00 | 14 | 1008.0 |
| 20260509165504 | 33 | 184 | 0.0 | 3.2 | 0.00 | 0.00 | 0.00 | 15 | 1007.9 |
| 20260509165004 | 33 | 242 | 0.0 | 3.2 | 0.00 | 0.00 | 0.00 | 15 | 1008.0 |
| 20260509164501 | 32 | 121 | 0.0 | 4.8 | 0.00 | 0.00 | 0.00 | 14 | 1008.0 |
| 20260509164100 | 32 | 204 | 0.0 | 4.8 | 0.00 | 0.00 | 0.00 | 15 | 1007.9 |
| 20260509163559 | 32 | 173 | 0.0 | 4.8 | 0.00 | 0.00 | 0.00 | 15 | 1008.0 |
| 20260509163101 | 32 | 229 | 0.0 | 3.2 | 0.00 | 0.00 | 0.00 | 16 | 1008.0 |
| 20260509162556 | 32 | 86 | 0.0 | 3.2 | 0.00 | 0.00 | 0.00 | 15 | 1007.9 |
| 20260509162055 | 32 | 88 | 0.0 | 3.2 | 0.00 | 0.00 | 0.00 | 15 | 1007.9 |
| 20260509161553 | 31 | 184 | 0.0 | 3.2 | 0.00 | 0.00 | 0.00 | 15 | 1007.9 |
| 20260509161052 | 31 | 155 | 0.0 | 3.2 | 0.00 | 0.00 | 0.00 | 16 | 1007.9 |
| 20260509160551 | 31 | 183 | 0.0 | 3.2 | 0.00 | 0.00 | 0.00 | 16 | 1008.0 |
| 20260509160050 | 31 | 156 | 1.6 | 3.2 | 0.00 | 0.00 | 0.00 | 15 | 1007.9 |
| 20260509155548 | 31 | 314 | 0.0 | 3.2 | 0.00 | 0.00 | 0.00 | 16 | 1007.8 |
| 20260509155047 | 30 | 303 | 0.0 | 3.2 | 0.00 | 0.00 | 0.00 | 16 | 1007.8 |
| 20260509154553 | 30 | 169 | 0.0 | 3.2 | 0.00 | 0.00 | 0.00 | 15 | 1007.8 |
| 20260509154047 | 30 | 146 | 0.0 | 3.2 | 0.00 | 0.00 | 0.00 | 16 | 1007.8 |
| 20260509153544 | 30 | 119 | 0.0 | 3.2 | 0.00 | 0.00 | 0.00 | 16 | 1007.9 |
| 20260509153043 | 29 | 135 | 0.0 | 3.2 | 0.00 | 0.00 | 0.00 | 16 | 1007.8 |
| 20260509152545 | 28 | 152 | 0.0 | 3.2 | 0.00 | 0.00 | 0.00 | 17 | 1007.8 |
| 20260509152041 | 28 | 26 | 0.0 | 4.8 | 0.00 | 0.00 | 0.00 | 19 | 1007.9 |
| 20260509151542 | 28 | 52 | 0.0 | 6.4 | 0.00 | 0.00 | 0.00 | 17 | 1007.8 |
| 20260509151039 | 28 | 46 | 1.6 | 8.0 | 0.00 | 0.00 | 0.00 | 18 | 1007.8 |
| 20260509150537 | 27 | 29 | 3.2 | 8.0 | 0.00 | 0.00 | 0.00 | 18 | 1007.9 |
| 20260509150036 | 27 | 54 | 3.2 | 8.0 | 0.00 | 0.00 | 0.00 | 17 | 1007.9 |
| 20260509145535 | 27 | 40 | 3.2 | 8.0 | 0.00 | 0.00 | 0.00 | 18 | 1007.8 |
| 20260509145034 | 27 | 48 | 1.6 | 9.7 | 0.00 | 0.00 | 0.00 | 18 | 1007.7 |
| 20260509144537 | 26 | 35 | 6.4 | 9.7 | 0.00 | 0.00 | 0.00 | 18 | 1007.7 |
| 20260509144030 | 26 | 53 | 4.8 | 11.3 | 0.00 | 0.00 | 0.00 | 18 | 1007.7 |
| 20260509143530 | 26 | 54 | 4.8 | 11.3 | 0.00 | 0.00 | 0.00 | 20 | 1007.5 |
| 20260509143028 | 26 | 41 | 4.8 | 11.3 | 0.00 | 0.00 | 0.00 | 18 | 1007.5 |
| 20260509142527 | 26 | 46 | 4.8 | 12.9 | 0.00 | 0.00 | 0.00 | 18 | 1007.5 |
| 20260509142026 | 25 | 38 | 4.8 | 9.7 | 0.00 | 0.00 | 0.00 | 19 | 1007.5 |
| 20260509141526 | 25 | 38 | 4.8 | 9.7 | 0.00 | 0.00 | 0.00 | 18 | 1007.5 |
| 20260509141026 | 25 | 59 | 4.8 | 9.7 | 0.00 | 0.00 | 0.00 | 19 | 1007.4 |
| 20260509140524 | 25 | 61 | 4.8 | 11.3 | 0.00 | 0.00 | 0.00 | 19 | 1007.4 |
| 20260509140023 | 25 | 56 | 3.2 | 8.0 | 0.00 | 0.00 | 0.00 | 19 | 1007.3 |
| 20260509135522 | 25 | 65 | 3.2 | 8.0 | 0.00 | 0.00 | 0.00 | 19 | 1007.3 |
| 20260509135024 | 25 | 63 | 1.6 | 11.3 | 0.00 | 0.00 | 0.00 | 19 | 1007.2 |
| 20260509134519 | 25 | 44 | 4.8 | 11.3 | 0.00 | 0.00 | 0.00 | 20 | 1007.1 |
| 20260509134018 | 25 | 69 | 1.6 | 6.4 | 0.00 | 0.00 | 0.00 | 19 | 1007.0 |
| 20260509133517 | 25 | 82 | 1.6 | 6.4 | 0.00 | 0.00 | 0.00 | 20 | 1006.9 |
| 20260509133016 | 25 | 65 | 1.6 | 3.2 | 0.00 | 0.00 | 0.00 | 22 | 1006.9 |
| 20260509132517 | 25 | 334 | 0.0 | 3.2 | 0.00 | 0.00 | 0.00 | 23 | 1006.8 |
| 20260509132013 | 25 | 227 | 0.0 | 0.0 | 0.00 | 0.00 | 0.00 | 23 | 1006.7 |
| 20260509131512 | 25 | 242 | 0.0 | 1.6 | 0.00 | 0.00 | 0.00 | 22 | 1006.6 |
| 20260509131011 | 25 | 250 | 0.0 | 6.4 | 0.00 | 0.00 | 0.00 | 22 | 1006.6 |
| 20260509130510 | 25 | 239 | 0.0 | 6.4 | 0.00 | 0.00 | 0.00 | 22 | 1006.5 |
| 20260509130011 | 25 | 238 | 0.0 | 6.4 | 0.00 | 0.00 | 0.00 | 22 | 1006.4 |
| 20260509125508 | 25 | 251 | 1.6 | 6.4 | 0.00 | 0.00 | 0.00 | 22 | 1006.4 |
| 20260509125007 | 24 | 270 | 0.0 | 4.8 | 0.00 | 0.00 | 0.00 | 22 | 1006.4 |
| 20260509124507 | 24 | 226 | 0.0 | 3.2 | 0.00 | 0.00 | 0.00 | 22 | 1006.4 |
| 20260509124007 | 24 | 216 | 0.0 | 3.2 | 0.00 | 0.00 | 0.00 | 22 | 1006.3 |
| 20260509123506 | 24 | 209 | 0.0 | 3.2 | 0.00 | 0.00 | 0.00 | 23 | 1006.3 |
| 20260509123005 | 24 | 222 | 0.0 | 8.0 | 0.00 | 0.00 | 0.00 | 22 | 1006.3 |
| 20260509122506 | 24 | 219 | 0.0 | 8.0 | 0.00 | 0.00 | 0.00 | 22 | 1006.2 |
| 20260509122005 | 24 | 217 | 0.0 | 3.2 | 0.00 | 0.00 | 0.00 | 22 | 1006.2 |
| 20260509121505 | 24 | 258 | 0.0 | 3.2 | 0.00 | 0.00 | 0.00 | 23 | 1006.2 |
| 20260509121005 | 24 | 226 | 0.0 | 3.2 | 0.00 | 0.00 | 0.00 | 23 | 1006.1 |
| 20260509120507 | 24 | 226 | 0.0 | 3.2 | 0.00 | 0.00 | 0.00 | 23 | 1006.1 |
| 20260509120003 | 24 | 214 | 0.0 | 3.2 | 0.00 | 0.00 | 0.00 | 22 | 1006.1 |
| 20260509115501 | 25 | 203 | 0.0 | 3.2 | 0.00 | 0.00 | 0.00 | 23 | 1006.0 |
| 20260509115000 | 25 | 207 | 0.0 | 3.2 | 0.00 | 0.00 | 0.00 | 22 | 1006.1 |
| 20260509114604 | 25 | 215 | 0.0 | 3.2 | 0.00 | 0.00 | 0.00 | 22 | 1006.1 |
| 20260509114059 | 25 | 267 | 0.0 | 3.2 | 0.00 | 0.00 | 0.00 | 22 | 1006.2 |
| 20260509113558 | 25 | 199 | 0.0 | 3.2 | 0.00 | 0.00 | 0.00 | 21 | 1006.2 |
| 20260509113058 | 25 | 191 | 0.0 | 3.2 | 0.00 | 0.00 | 0.00 | 21 | 1006.2 |
| 20260509112559 | 26 | 159 | 0.0 | 4.8 | 0.00 | 0.00 | 0.00 | 20 | 1006.2 |
| 20260509112055 | 26 | 126 | 3.2 | 4.8 | 0.00 | 0.00 | 0.00 | 20 | 1006.2 |
| 20260509111554 | 26 | 92 | 0.0 | 3.2 | 0.00 | 0.00 | 0.00 | 20 | 1006.1 |
| 20260509111053 | 26 | 216 | 0.0 | 4.8 | 0.00 | 0.00 | 0.00 | 20 | 1006.0 |
| 20260509110553 | 27 | 242 | 1.6 | 8.0 | 0.00 | 0.00 | 0.00 | 19 | 1006.0 |
| 20260509110051 | 27 | 237 | 1.6 | 8.0 | 0.00 | 0.00 | 0.00 | 19 | 1006.0 |
| 20260509105550 | 27 | 240 | 1.6 | 8.0 | 0.00 | 0.00 | 0.00 | 19 | 1005.9 |
| 20260509105051 | 27 | 219 | 1.6 | 9.7 | 0.00 | 0.00 | 0.00 | 19 | 1005.9 |
| 20260509104550 | 27 | 250 | 3.2 | 8.0 | 0.00 | 0.00 | 0.00 | 19 | 1005.9 |
| 20260509104049 | 27 | 271 | 3.2 | 6.4 | 0.00 | 0.00 | 0.00 | 19 | 1005.9 |
| 20260509103548 | 27 | 203 | 1.6 | 8.0 | 0.00 | 0.00 | 0.00 | 19 | 1005.8 |
| 20260509103051 | 27 | 278 | 3.2 | 9.7 | 0.00 | 0.00 | 0.00 | 19 | 1005.8 |
| 20260509102547 | 27 | 279 | 3.2 | 12.9 | 0.00 | 0.00 | 0.00 | 19 | 1005.8 |
| 20260509102047 | 27 | 257 | 3.2 | 12.9 | 0.00 | 0.00 | 0.00 | 18 | 1005.7 |
| 20260509101553 | 27 | 234 | 3.2 | 11.3 | 0.00 | 0.00 | 0.00 | 18 | 1005.8 |
| 20260509101047 | 27 | 274 | 3.2 | 12.9 | 0.00 | 0.00 | 0.00 | 18 | 1005.8 |
| 20260509100545 | 27 | 277 | 4.8 | 12.9 | 0.00 | 0.00 | 0.00 | 18 | 1005.9 |
| 20260509100046 | 27 | 286 | 1.6 | 6.4 | 0.00 | 0.00 | 0.00 | 18 | 1005.9 |
| 20260509095545 | 27 | 269 | 3.2 | 6.4 | 0.00 | 0.00 | 0.00 | 17 | 1005.9 |
| 20260509095045 | 27 | 274 | 1.6 | 4.8 | 0.00 | 0.00 | 0.00 | 17 | 1005.9 |
| 20260509094544 | 27 | 279 | 1.6 | 6.4 | 0.00 | 0.00 | 0.00 | 17 | 1005.9 |
| 20260509094042 | 28 | 247 | 1.6 | 9.7 | 0.00 | 0.00 | 0.00 | 16 | 1005.9 |
| 20260509093542 | 28 | 228 | 0.0 | 9.7 | 0.00 | 0.00 | 0.00 | 16 | 1005.9 |
| 20260509093052 | 28 | 197 | 0.0 | 6.4 | 0.00 | 0.00 | 0.00 | 16 | 1005.9 |
| 20260509092538 | 28 | 225 | 0.0 | 3.2 | 0.00 | 0.00 | 0.00 | 15 | 1005.9 |
| 20260509092037 | 29 | 223 | 0.0 | 3.2 | 0.00 | 0.00 | 0.00 | 15 | 1005.9 |
| 20260509091537 | 30 | 165 | 0.0 | 3.2 | 0.00 | 0.00 | 0.00 | 14 | 1005.9 |
| 20260509091036 | 30 | 157 | 0.0 | 3.2 | 0.00 | 0.00 | 0.00 | 13 | 1005.9 |
| 20260509090534 | 30 | 168 | 0.0 | 3.2 | 0.00 | 0.00 | 0.00 | 12 | 1005.8 |
| 20260509090033 | 30 | 163 | 0.0 | 6.4 | 0.00 | 0.00 | 0.00 | 11 | 1005.7 |
| 20260509085534 | 31 | 218 | 0.0 | 6.4 | 0.00 | 0.00 | 0.00 | 11 | 1005.7 |
| 20260509085030 | 31 | 264 | 0.0 | 16.1 | 0.00 | 0.00 | 0.00 | 11 | 1005.7 |
| 20260509084543 | 31 | 244 | 6.4 | 16.1 | 0.00 | 0.00 | 0.00 | 11 | 1005.6 |
| 20260509084031 | 31 | 273 | 3.2 | 12.9 | 0.00 | 0.00 | 0.00 | 11 | 1005.6 |
| 20260509083529 | 31 | 257 | 8.0 | 16.1 | 0.00 | 0.00 | 0.00 | 10 | 1005.5 |
| 20260509083029 | 31 | 241 | 9.7 | 17.7 | 0.00 | 0.00 | 0.00 | 10 | 1005.4 |
| 20260509082530 | 31 | 298 | 11.3 | 20.9 | 0.00 | 0.00 | 0.00 | 10 | 1005.5 |
| 20260509082030 | 31 | 279 | 9.7 | 19.3 | 0.00 | 0.00 | 0.00 | 10 | 1005.4 |
| 20260509081537 | 31 | 240 | 9.7 | 20.9 | 0.00 | 0.00 | 0.00 | 10 | 1005.4 |
| 20260509081028 | 31 | 292 | 11.3 | 20.9 | 0.00 | 0.00 | 0.00 | 10 | 1005.4 |
| 20260509080526 | 31 | 266 | 11.3 | 20.9 | 0.00 | 0.00 | 0.00 | 10 | 1005.4 |
| 20260509080038 | 31 | 265 | 9.7 | 19.3 | 0.00 | 0.00 | 0.00 | 11 | 1005.4 |
| 20260509075530 | 31 | 271 | 9.7 | 24.1 | 0.00 | 0.00 | 0.00 | 11 | 1005.4 |
| 20260509075026 | 31 | 325 | 11.3 | 27.4 | 0.00 | 0.00 | 0.00 | 11 | 1005.4 |
| 20260509074525 | 31 | 308 | 14.5 | 27.4 | 0.00 | 0.00 | 0.00 | 12 | 1005.3 |
| 20260509074024 | 31 | 310 | 14.5 | 25.7 | 0.00 | 0.00 | 0.00 | 12 | 1005.3 |
| 20260509073528 | 31 | 306 | 14.5 | 25.7 | 0.00 | 0.00 | 0.00 | 12 | 1005.4 |
| 20260509073028 | 31 | 313 | 14.5 | 24.1 | 0.00 | 0.00 | 0.00 | 12 | 1005.5 |
| 20260509072524 | 31 | 288 | 12.9 | 27.4 | 0.00 | 0.00 | 0.00 | 12 | 1005.4 |
| 20260509072023 | 31 | 331 | 14.5 | 27.4 | 0.00 | 0.00 | 0.00 | 11 | 1005.4 |
| 20260509071522 | 31 | 290 | 14.5 | 24.1 | 0.00 | 0.00 | 0.00 | 11 | 1005.4 |
| 20260509071023 | 31 | 339 | 12.9 | 22.5 | 0.00 | 0.00 | 0.00 | 12 | 1005.4 |
| 20260509070521 | 31 | 306 | 14.5 | 22.5 | 0.00 | 0.00 | 0.00 | 12 | 1005.5 |
| 20260509070020 | 31 | 279 | 11.3 | 20.9 | 0.00 | 0.00 | 0.00 | 14 | 1005.4 |
| 20260509065519 | 31 | 296 | 14.5 | 20.9 | 0.00 | 0.00 | 0.00 | 12 | 1005.5 |
| 20260509065019 | 31 | 331 | 12.9 | 25.7 | 0.00 | 0.00 | 0.00 | 12 | 1005.4 |
| 20260509064519 | 31 | 299 | 11.3 | 25.7 | 0.00 | 0.00 | 0.00 | 13 | 1005.5 |
| 20260509064018 | 31 | 321 | 12.9 | 22.5 | 0.00 | 0.00 | 0.00 | 12 | 1005.5 |
| 20260509063520 | 31 | 250 | 11.3 | 25.7 | 0.00 | 0.00 | 0.00 | 12 | 1005.5 |
| 20260509063018 | 32 | 309 | 12.9 | 25.7 | 0.00 | 0.00 | 0.00 | 13 | 1005.4 |
| 20260509062518 | 32 | 300 | 14.5 | 25.7 | 0.00 | 0.00 | 0.00 | 11 | 1005.5 |
| 20260509062022 | 32 | 287 | 14.5 | 25.7 | 0.00 | 0.00 | 0.00 | 11 | 1005.4 |
| 20260509061518 | 32 | 279 | 14.5 | 25.7 | 0.00 | 0.00 | 0.00 | 11 | 1005.4 |
| 20260509061020 | 32 | 281 | 12.9 | 22.5 | 0.00 | 0.00 | 0.00 | 11 | 1005.4 |
| 20260509060517 | 32 | 309 | 14.5 | 22.5 | 0.00 | 0.00 | 0.00 | 11 | 1005.4 |
| 20260509060016 | 32 | 284 | 11.3 | 24.1 | 0.00 | 0.00 | 0.00 | 11 | 1005.3 |
| 20260509055516 | 32 | 315 | 14.5 | 24.1 | 0.00 | 0.00 | 0.00 | 11 | 1005.2 |
| 20260509055015 | 32 | 263 | 12.9 | 24.1 | 0.00 | 0.00 | 0.00 | 11 | 1005.2 |
| 20260509054518 | 32 | 297 | 16.1 | 24.1 | 0.00 | 0.00 | 0.00 | 11 | 1005.2 |
| 20260509054015 | 32 | 292 | 11.3 | 22.5 | 0.00 | 0.00 | 0.00 | 11 | 1005.2 |
| 20260509053515 | 32 | 332 | 11.3 | 24.1 | 0.00 | 0.00 | 0.00 | 12 | 1005.2 |
| 20260509053028 | 32 | 291 | 11.3 | 19.3 | 0.00 | 0.00 | 0.00 | 12 | 1005.3 |
| 20260509052514 | 32 | 304 | 11.3 | 19.3 | 0.00 | 0.00 | 0.00 | 12 | 1005.3 |
| 20260509052014 | 32 | 261 | 9.7 | 19.3 | 0.00 | 0.00 | 0.00 | 12 | 1005.4 |
| 20260509051516 | 32 | 265 | 6.4 | 17.7 | 0.00 | 0.00 | 0.00 | 13 | 1005.4 |
| 20260509051014 | 32 | 259 | 9.7 | 17.7 | 0.00 | 0.00 | 0.00 | 12 | 1005.4 |
| 20260509050515 | 32 | 286 | 8.0 | 17.7 | 0.00 | 0.00 | 0.00 | 12 | 1005.4 |
| 20260509050017 | 32 | 263 | 4.8 | 11.3 | 0.00 | 0.00 | 0.00 | 12 | 1005.4 |
| 20260509045516 | 32 | 275 | 3.2 | 9.7 | 0.00 | 0.00 | 0.00 | 13 | 1005.4 |
| 20260509045013 | 32 | 256 | 4.8 | 11.3 | 0.00 | 0.00 | 0.00 | 13 | 1005.4 |
| 20260509044513 | 32 | 290 | 3.2 | 14.5 | 0.00 | 0.00 | 0.00 | 13 | 1005.3 |
| 20260509044013 | 32 | 264 | 6.4 | 14.5 | 0.00 | 0.00 | 0.00 | 13 | 1005.3 |
| 20260509043512 | 32 | 300 | 4.8 | 12.9 | 0.00 | 0.00 | 0.00 | 14 | 1005.2 |
| 20260509043013 | 32 | 294 | 3.2 | 12.9 | 0.00 | 0.00 | 0.00 | 14 | 1005.2 |
| 20260509042513 | 32 | 219 | 3.2 | 8.0 | 0.00 | 0.00 | 0.00 | 14 | 1005.2 |
| 20260509042013 | 32 | 246 | 3.2 | 6.4 | 0.00 | 0.00 | 0.00 | 14 | 1005.1 |
| 20260509041513 | 32 | 300 | 1.6 | 6.4 | 0.00 | 0.00 | 0.00 | 14 | 1005.1 |
| 20260509041012 | 32 | 291 | 1.6 | 6.4 | 0.00 | 0.00 | 0.00 | 14 | 1005.1 |
| 20260509040512 | 32 | 248 | 1.6 | 6.4 | 0.00 | 0.00 | 0.00 | 14 | 1005.0 |
| 20260509040012 | 32 | 280 | 3.2 | 8.0 | 0.00 | 0.00 | 0.00 | 14 | 1004.9 |
| 20260509035512 | 32 | 259 | 4.8 | 11.3 | 0.00 | 0.00 | 0.00 | 13 | 1004.8 |
| 20260509035012 | 33 | 261 | 4.8 | 11.3 | 0.00 | 0.00 | 0.00 | 13 | 1004.8 |
| 20260509034511 | 33 | 269 | 6.4 | 11.3 | 0.00 | 0.00 | 0.00 | 13 | 1004.8 |
| 20260509034011 | 33 | 269 | 3.2 | 9.7 | 0.00 | 0.00 | 0.00 | 13 | 1004.7 |
| 20260509033512 | 33 | 256 | 1.6 | 14.5 | 0.00 | 0.00 | 0.00 | 13 | 1004.6 |
| 20260509033011 | 33 | 308 | 6.4 | 14.5 | 0.00 | 0.00 | 0.00 | 13 | 1004.7 |
| 20260509032511 | 33 | 290 | 4.8 | 12.9 | 0.00 | 0.00 | 0.00 | 13 | 1004.6 |
| 20260509032011 | 33 | 307 | 4.8 | 17.7 | 0.00 | 0.00 | 0.00 | 13 | 1004.5 |
| 20260509031510 | 33 | 272 | 3.2 | 14.5 | 0.00 | 0.00 | 0.00 | 13 | 1004.5 |
| 20260509031010 | 34 | 287 | 3.2 | 14.5 | 0.00 | 0.00 | 0.00 | 12 | 1004.4 |
| 20260509030509 | 34 | 263 | 6.4 | 14.5 | 0.00 | 0.00 | 0.00 | 12 | 1004.4 |
| 20260509030008 | 34 | 267 | 8.0 | 14.5 | 0.00 | 0.00 | 0.00 | 12 | 1004.3 |
| 20260509025508 | 34 | 276 | 1.6 | 12.9 | 0.00 | 0.00 | 0.00 | 11 | 1004.3 |
| 20260509025006 | 35 | 267 | 3.2 | 14.5 | 0.00 | 0.00 | 0.00 | 10 | 1004.3 |
| 20260509024506 | 35 | 270 | 8.0 | 14.5 | 0.00 | 0.00 | 0.00 | 10 | 1004.2 |
| 20260509024006 | 35 | 295 | 6.4 | 14.5 | 0.00 | 0.00 | 0.00 | 10 | 1004.1 |
| 20260509023506 | 35 | 280 | 4.8 | 12.9 | 0.00 | 0.00 | 0.00 | 10 | 1004.0 |
| 20260509023006 | 35 | 319 | 4.8 | 12.9 | 0.00 | 0.00 | 0.00 | 10 | 1003.9 |
| 20260509022508 | 35 | 307 | 1.6 | 11.3 | 0.00 | 0.00 | 0.00 | 10 | 1003.9 |
| 20260509022006 | 35 | 280 | 3.2 | 16.1 | 0.00 | 0.00 | 0.00 | 10 | 1003.9 |
| 20260509021506 | 35 | 282 | 8.0 | 20.9 | 0.00 | 0.00 | 0.00 | 10 | 1003.8 |
| 20260509021007 | 35 | 303 | 8.0 | 20.9 | 0.00 | 0.00 | 0.00 | 10 | 1003.8 |
| 20260509020506 | 35 | 292 | 9.7 | 16.1 | 0.00 | 0.00 | 0.00 | 10 | 1003.8 |
| 20260509020007 | 35 | 257 | 6.4 | 19.3 | 0.00 | 0.00 | 0.00 | 10 | 1003.8 |
| 20260509015504 | 36 | 310 | 8.0 | 19.3 | 0.00 | 0.00 | 0.00 | 11 | 1003.7 |
| 20260509015003 | 36 | 281 | 9.7 | 19.3 | 0.00 | 0.00 | 0.00 | 10 | 1003.7 |
| 20260509014508 | 36 | 283 | 4.8 | 12.9 | 0.00 | 0.00 | 0.00 | 10 | 1003.7 |
| 20260509014004 | 36 | 278 | 3.2 | 11.3 | 0.00 | 0.00 | 0.00 | 10 | 1003.7 |
| 20260509013503 | 36 | 302 | 4.8 | 17.7 | 0.00 | 0.00 | 0.00 | 10 | 1003.6 |
| 20260509013004 | 36 | 268 | 8.0 | 17.7 | 0.00 | 0.00 | 0.00 | 10 | 1003.7 |
| 20260509012503 | 36 | 257 | 3.2 | 11.3 | 0.00 | 0.00 | 0.00 | 10 | 1003.6 |
| 20260509012004 | 36 | 322 | 6.4 | 12.9 | 0.00 | 0.00 | 0.00 | 10 | 1003.6 |
| 20260509011503 | 36 | 279 | 6.4 | 16.1 | 0.00 | 0.00 | 0.00 | 10 | 1003.7 |
| 20260509011002 | 37 | 306 | 8.0 | 16.1 | 0.00 | 0.00 | 0.00 | 10 | 1003.8 |
| 20260509010504 | 37 | 306 | 6.4 | 14.5 | 0.00 | 0.00 | 0.00 | 10 | 1003.7 |
| 20260509010004 | 37 | 264 | 6.4 | 16.1 | 0.00 | 0.00 | 0.00 | 10 | 1003.7 |
| 20260509005505 | 37 | 271 | 6.4 | 16.1 | 0.00 | 0.00 | 0.00 | 10 | 1003.8 |
| 20260509005002 | 37 | 264 | 6.4 | 14.5 | 0.00 | 0.00 | 0.00 | 10 | 1003.7 |
| 20260509004501 | 37 | 267 | 6.4 | 16.1 | 0.00 | 0.00 | 0.00 | 10 | 1003.7 |
| 20260509004001 | 37 | 277 | 8.0 | 16.1 | 0.00 | 0.00 | 0.00 | 10 | 1003.8 |
| 20260509003504 | 38 | 167 | 4.8 | 11.3 | 0.00 | 0.00 | 0.00 | 10 | 1003.8 |
| 20260509003101 | 37 | 240 | 1.6 | 11.3 | 0.00 | 0.00 | 0.00 | 11 | 1003.9 |
| 20260509002601 | 37 | 317 | 4.8 | 20.9 | 0.00 | 0.00 | 0.00 | 10 | 1003.9 |